Location: Aiyede
(8.4833°N, 4.4500°E)
Time: 15:12:20
(UTC+00:00)

N. Korean satellite - Visible Passes

Search period start: 12 May 2021 00:00
Search period end: 22 May 2021 00:00
Orbit: 450 x 501 km, 97.2° (Epoch: 12 May)

Date Brightness Start Highest point End Pass type
(mag) Time Alt. Az. Time Alt. Az. Time Alt. Az.
13 May 6.4 04:47:44 10° N 04:51:07 84° W 04:54:31 10° SSW visible
14 May 8.4 04:21:04 10° NE 04:24:03 29° E 04:27:04 10° SSE visible
15 May 9.7 03:56:16 10° E 03:56:59 11° E 03:57:43 10° ESE visible
16 May 6.7 04:59:43 10° N 05:03:00 48° W 05:06:19 10° SSW visible
17 May 7.4 04:32:39 10° NNE 04:35:57 49° E 04:39:17 10° S visible
18 May 9.3 04:06:37 10° ENE 04:08:53 17° E 04:11:10 10° SE visible
20 May 6.5 04:44:24 10° NNE 04:47:48 85° E 04:51:16 10° S visible
21 May 8.6 04:17:49 10° NE 04:20:45 26° E 04:23:41 10° SSE visible
